Temp
14 14 13 12 12 11 12 12 11 12 12 12 13 13 14 14 13 13 13 13 13 13 13 13 13 13 12 12 11 11 11 10 9 9 8 8 8 8 8 8 7 8 8
14 12 12 12 12 11 12 12 13 12 12 12 13 13 13 13 13 13 13 13 13 13 13 13 13 13 12 12 11 11 11 10 9 8 7 7 6 6 7 7 7 7 7
14 13 12 12 12 12 11 12 12 12 11 12 12 12 12 13 13 13 13 13 13 13 13 13 13 13 12 12 12 11 11 11 10 9 9 8 10 7 6 7 7 7 6
13 14 12 11 11 12 12 11 12 12 13 12 12 13 13 14 14 15 14 14 14 13 13 13 13 13 12 12 12 12 11 11 11 10 10 10 8 9 6 5 6 6 6
13 13 13 11 12 11 12 12 11 11 11 12 12 12 12 13 14 14 14 14 14 13 13 13 13 13 12 12 12 12 12 11 11 11 10 10 9 9 8 7 5 6 6
12 12 13 12 11 11 11 11 11 12 12 12 12 12 12 13 13 13 14 14 14 13 13 13 13 13 13 13 12 12 12 11 11 10 10 10 10 10 9 8 6 6 5
12 11 12 12 11 11 11 11 11 10 11 11 12 12 12 12 13 14 14 14 14 14 14 14 13 13 13 13 12 12 12 12 11 11 10 10 10 10 10 8 7 6 4
12 11 11 12 11 11 11 11 11 11 11 11 11 11 12 12 12 13 13 14 14 14 14 14 13 13 13 12 12 12 12 11 11 11 10 10 10 10 10 10 9 6 4
11 12 11 11 11 9 11 10 10 11 11 12 12 11 12 11 11 12 12 12 13 13 13 13 13 13 12 12 12 12 12 12 11 11 10 10 9 9 9 9 9 7 6
11 12 12 11 10 10 9 11 10 13 12 12 12 12 12 12 12 11 12 11 12 12 13 13 12 13 12 12 11 11 11 11 11 11 10 10 9 9 9 9 8 8 6
11 11 12 12 11 10 9 10 10 10 10 12 11 12 12 11 11 11 11 11 11 11 12 12 12 12 12 12 12 11 11 11 11 11 10 10 9 9 8 8 8 8 7
10 12 12 12 12 11 10 10 10 9 10 11 11 12 12 11 11 11 11 10 11 11 11 11 11 12 11 11 11 11 11 11 10 11 10 10 9 8 8 8 8 7 7
11 12 12 12 12 12 11 9 10 10 10 11 11 11 12 11 11 11 11 11 11 11 11 10 11 11 11 11 10 10 11 11 11 10 10 9 9 8 8 7 7 7 6
10 12 11 11 12 12 12 11 9 10 10 10 10 10 10 10 11 10 10 11 11 11 10 11 11 10 10 11 11 10 10 10 10 10 9 9 9 8 8 8 7 7 6
11 11 11 11 11 11 12 12 11 9 9 9 10 10 10 9 9 10 9 11 10 10 10 10 10 10 10 9 10 10 10 10 10 10 9 8 8 8 8 8 7 6 5
10 9 10 10 11 12 11 11 12 10 9 9 9 9 9 9 9 9 10 10 10 10 10 9 10 10 10 9 10 9 9 10 9 10 8 8 8 6 6 6 5 6 6
10 8 9 9 10 10 10 10 11 10 9 8 8 8 8 8 8 9 8 8 9 9 9 8 9 10 9 8 8 8 9 8 7 8 8 7 6 6 5 5 4 4 4
8 7 8 8 8 9 9 10 10 10 9 8 7 7 8 8 8 8 8 8 8 8 8 8 10 8 9 8 7 6 7 5 6 6 5 5 5 5 5 4 4 4 4
7 6 6 7 7 8 8 9 9 9 9 7 7 6 7 7 8 8 8 8 8 8 8 8 8 8 8 8 9 6 7 5 5 5 4 4 3 4 4 3 3 3 3
5 4 5 5 6 6 7 7 7 7 6 5 6 6 7 7 7 7 7 7 7 7 7 7 7 7 8 7 7 7 5 6 4 4 3 3 2 3 2 2 2 2 3
4 4 4 5 4 4 4 5 5 5 5 5 5 6 6 6 7 7 7 6 6 6 6 6 6 7 7 7 6 5 6 4 5 5 3 2 1 0 0 -0 2 3 3
2 2 3 3 3 4 4 4 5 4 4 5 5 5 6 5 5 5 5 6 6 6 5 5 5 5 5 6 6 5 5 5 4 4 3 4 2 1 -0 1 1 2 2
1 2 2 3 3 4 4 4 3 4 4 4 4 4 5 4 4 4 4 4 5 5 5 4 5 5 4 4 4 4 4 3 3 3 2 1 1 -0 0 1 2 2 0
-0 0 1 2 2 3 3 3 3 3 4 4 4 4 4 4 4 4 4 3 4 4 3 3 3 3 3 3 2 3 2 2 2 1 1 -0 -0 -0 0 1 1 0 0
-1 -1 -0 -0 -0 1 2 2 2 3 3 3 3 3 3 3 3 3 2 3 3 2 2 2 3 3 3 3 2 2 2 2 1 -0 -0 -1 -0 -0 -0 0 -0 0 -0
-3 -2 -3 -2 -2 -2 -1 -1 -0 0 1 2 2 2 2 1 2 1 1 1 1 1 1 1 1 1 1 2 1 1 1 1 0 -0 -0 -0 0 1 0 0 -0 -1 -1
Height
1437 1436 1441 1445 1450 1458 1455 1466 1470 1472 1481 1486 1491 1495 1498 1502 1506 1509 1512 1514 1517 1520 1522 1526 1529 1532 1535 1536 1539 1541 1543 1545 1549 1551 1554 1556 1557 1557 1559 1560 1561 1561 1562
1430 1433 1434 1437 1442 1444 1449 1458 1468 1470 1473 1481 1488 1491 1494 1499 1503 1506 1509 1512 1514 1517 1520 1524 1527 1529 1533 1533 1536 1539 1540 1543 1546 1551 1553 1556 1558 1557 1557 1558 1559 1560 1561
1427 1430 1432 1434 1438 1442 1446 1450 1457 1465 1461 1476 1483 1486 1490 1494 1498 1502 1504 1507 1510 1514 1518 1521 1524 1527 1530 1531 1534 1536 1538 1540 1543 1546 1551 1553 1554 1556 1555 1556 1557 1559 1560
1423 1427 1430 1432 1435 1439 1445 1449 1453 1455 1458 1471 1477 1479 1484 1487 1492 1495 1499 1503 1507 1510 1514 1518 1521 1524 1527 1528 1531 1533 1535 1537 1540 1543 1545 1546 1549 1552 1554 1555 1555 1556 1558
1418 1421 1425 1428 1431 1435 1439 1443 1450 1456 1460 1464 1468 1474 1479 1485 1488 1491 1495 1498 1502 1506 1510 1514 1517 1520 1524 1526 1527 1529 1532 1534 1536 1539 1540 1543 1545 1547 1550 1552 1552 1553 1554
1415 1419 1423 1426 1428 1431 1434 1437 1444 1448 1452 1458 1462 1466 1472 1478 1482 1485 1488 1492 1497 1501 1505 1509 1512 1516 1519 1522 1524 1525 1528 1531 1533 1535 1537 1539 1540 1541 1545 1547 1549 1551 1551
1413 1415 1418 1422 1425 1427 1431 1433 1438 1442 1447 1451 1456 1461 1467 1472 1475 1480 1483 1487 1490 1495 1499 1502 1506 1510 1514 1516 1519 1520 1523 1525 1528 1530 1533 1535 1536 1537 1540 1542 1544 1548 1547
1409 1409 1412 1418 1420 1420 1425 1427 1431 1436 1440 1444 1449 1454 1461 1467 1470 1473 1477 1482 1485 1489 1494 1498 1502 1505 1508 1511 1514 1515 1517 1520 1523 1525 1528 1531 1533 1534 1536 1537 1538 1542 1544
1409 1407 1408 1411 1417 1417 1418 1422 1426 1432 1435 1441 1445 1450 1455 1460 1463 1467 1471 1476 1480 1484 1489 1491 1496 1500 1503 1506 1509 1511 1512 1514 1517 1520 1523 1526 1528 1530 1532 1533 1535 1537 1538
1411 1410 1408 1408 1411 1416 1416 1418 1421 1425 1429 1434 1438 1442 1447 1452 1455 1460 1462 1468 1472 1476 1482 1486 1491 1494 1498 1501 1503 1506 1507 1509 1511 1513 1517 1520 1523 1526 1526 1529 1530 1532 1537
1410 1409 1408 1406 1405 1411 1413 1414 1418 1421 1423 1427 1432 1435 1439 1444 1447 1451 1455 1461 1464 1470 1474 1480 1485 1488 1493 1495 1497 1501 1502 1503 1505 1508 1510 1514 1518 1521 1523 1523 1525 1527 1529
1408 1406 1405 1404 1403 1403 1406 1408 1411 1415 1417 1420 1423 1426 1432 1437 1439 1443 1448 1453 1456 1460 1467 1471 1477 1481 1486 1490 1491 1494 1497 1498 1501 1502 1506 1508 1511 1515 1518 1520 1521 1522 1524
1407 1405 1403 1401 1400 1399 1399 1401 1405 1409 1411 1413 1415 1417 1424 1428 1431 1436 1442 1446 1449 1448 1458 1462 1467 1474 1478 1482 1486 1488 1491 1493 1495 1498 1502 1504 1506 1508 1511 1515 1517 1518 1520
1404 1402 1401 1398 1395 1394 1394 1395 1398 1402 1405 1405 1409 1411 1416 1420 1425 1430 1435 1438 1441 1445 1449 1455 1460 1465 1470 1474 1478 1481 1484 1487 1489 1491 1497 1499 1502 1504 1505 1509 1512 1514 1515
1398 1399 1398 1395 1393 1391 1391 1391 1393 1396 1397 1401 1403 1407 1410 1413 1419 1422 1429 1430 1432 1437 1443 1448 1452 1456 1460 1463 1470 1472 1476 1479 1483 1484 1490 1492 1497 1501 1503 1502 1506 1509 1511
1393 1394 1394 1392 1390 1389 1389 1389 1390 1391 1392 1394 1397 1401 1406 1408 1411 1417 1420 1423 1428 1431 1434 1439 1443 1447 1450 1455 1460 1466 1466 1471 1474 1476 1482 1485 1489 1497 1499 1501 1504 1507 1508
1389 1388 1388 1388 1388 1386 1386 1388 1389 1388 1390 1391 1393 1395 1399 1402 1406 1410 1413 1417 1418 1423 1426 1429 1433 1439 1443 1446 1450 1453 1456 1461 1464 1468 1475 1479 1482 1487 1492 1497 1500 1501 1503
1385 1384 1383 1382 1383 1383 1383 1384 1385 1386 1387 1387 1389 1394 1394 1398 1401 1404 1407 1410 1413 1415 1418 1422 1423 1437 1433 1438 1441 1445 1444 1451 1449 1457 1466 1474 1478 1480 1483 1492 1494 1494 1497
1381 1381 1381 1380 1380 1381 1381 1382 1382 1382 1383 1385 1387 1391 1392 1394 1397 1400 1403 1406 1408 1410 1412 1415 1418 1422 1427 1431 1432 1436 1435 1444 1443 1446 1457 1464 1472 1474 1478 1487 1487 1490 1492
1380 1381 1380 1379 1379 1380 1380 1380 1381 1381 1382 1384 1386 1387 1389 1391 1394 1397 1399 1401 1405 1407 1409 1411 1413 1417 1422 1425 1429 1430 1431 1430 1437 1440 1449 1455 1460 1467 1472 1478 1481 1485 1487
1379 1380 1380 1380 1380 1381 1381 1381 1381 1382 1383 1385 1387 1387 1387 1389 1391 1394 1395 1398 1398 1402 1404 1405 1408 1412 1413 1419 1424 1425 1424 1432 1431 1432 1439 1446 1453 1457 1462 1473 1477 1479 1482
1381 1381 1381 1381 1382 1383 1384 1383 1382 1383 1384 1385 1385 1387 1388 1389 1391 1393 1395 1397 1398 1401 1402 1403 1406 1408 1410 1414 1419 1421 1424 1423 1430 1430 1436 1440 1447 1454 1458 1467 1473 1474 1478
1382 1383 1384 1385 1385 1386 1387 1387 1387 1387 1387 1387 1388 1389 1390 1391 1391 1393 1395 1396 1399 1401 1402 1404 1406 1405 1407 1411 1412 1418 1421 1424 1426 1428 1435 1440 1443 1451 1458 1461 1465 1467 1473
1384 1386 1387 1388 1388 1390 1391 1391 1392 1393 1392 1392 1392 1392 1393 1393 1394 1395 1397 1398 1399 1400 1402 1404 1405 1407 1408 1409 1413 1414 1420 1423 1423 1427 1432 1435 1440 1448 1453 1457 1458 1462 1466
1388 1390 1391 1391 1392 1393 1393 1394 1395 1396 1395 1395 1395 1395 1396 1397 1397 1397 1398 1398 1399 1400 1402 1403 1403 1404 1406 1408 1410 1413 1417 1417 1419 1425 1429 1431 1438 1443 1446 1448 1451 1457 1462
1393 1395 1396 1396 1397 1397 1396 1396 1397 1396 1396 1396 1396 1397 1398 1399 1399 1399 1399 1400 1400 1401 1402 1403 1403 1404 1405 1406 1409 1413 1414 1416 1420 1423 1425 1429 1434 1436 1441 1442 1447 1451 1454
Wind_Speed
15 14 17 28 30 35 26 23 16 45 43 40 36 33 32 31 29 26 24 23 22 21 19 18 17 17 17 17 18 18 17 17 16 14 11 9 9 9 9 8 7 6 5
16 12 15 22 31 38 33 30 21 41 46 43 40 37 35 32 29 27 25 24 23 22 20 19 17 17 19 19 19 19 19 18 18 10 10 7 6 8 10 9 9 7 5
20 16 17 23 28 38 43 42 32 25 47 45 42 39 35 34 32 29 29 28 25 23 21 20 18 18 18 18 19 19 19 18 21 17 7 6 6 11 10 11 10 9 7
16 18 19 21 29 31 35 47 38 34 38 49 47 46 41 38 35 35 33 28 26 25 24 22 20 19 19 19 19 19 19 19 20 22 21 11 9 8 7 11 13 12 10
13 17 19 20 27 32 36 36 38 43 48 53 51 46 40 38 37 37 33 30 30 28 26 24 22 21 20 19 19 20 21 20 21 22 23 20 14 11 6 8 12 15 14
6 14 17 19 21 31 35 34 36 38 42 49 48 47 44 41 40 38 37 34 32 31 29 27 25 23 22 21 20 19 20 21 21 21 21 22 20 19 15 8 11 11 13
5 9 18 21 22 29 33 37 37 34 39 42 50 49 46 46 43 39 38 37 36 34 32 31 29 27 25 23 23 22 22 23 23 22 22 23 21 19 17 13 12 10 11
2 4 11 21 24 29 32 34 36 37 36 36 42 49 47 48 46 43 40 40 39 36 34 32 30 30 28 26 26 25 24 24 23 23 23 23 23 21 19 19 18 12 9
8 8 5 16 24 28 34 37 38 40 40 39 39 42 40 48 49 45 41 40 39 39 38 37 34 32 30 28 28 28 26 25 25 25 24 25 24 23 22 21 19 15 12
8 10 9 6 19 27 30 34 39 41 42 43 44 39 43 50 51 49 44 45 41 41 41 37 37 35 33 31 31 31 29 28 27 27 26 26 26 24 23 22 21 20 11
9 13 7 4 9 21 28 31 34 40 45 46 46 37 40 35 44 50 46 43 42 40 40 39 38 37 38 35 33 33 31 31 30 29 28 27 26 26 25 24 23 21 20
13 10 8 4 5 13 23 27 33 36 38 41 46 44 36 38 34 37 44 44 44 43 42 41 38 38 39 40 37 35 34 32 33 31 31 29 28 27 26 24 24 23 22
12 9 14 12 8 8 14 26 29 34 36 33 35 41 43 42 39 39 39 43 44 45 43 40 41 39 39 42 41 38 37 34 33 33 32 31 30 29 28 26 25 23 22
11 14 15 12 10 10 10 15 24 30 33 30 33 34 34 34 38 42 42 47 41 42 45 44 41 40 40 42 42 42 40 37 35 33 32 31 30 30 28 27 26 25 24
15 14 13 12 10 13 13 13 15 22 26 28 27 28 28 30 33 31 37 41 43 39 40 40 42 39 43 42 43 44 43 41 37 34 33 32 30 29 28 27 28 27 26
17 13 13 13 10 11 15 15 15 15 19 22 25 26 27 29 30 30 30 31 34 35 41 43 35 34 41 44 45 45 45 43 40 37 37 33 30 29 27 25 26 25 25
17 16 14 10 9 9 15 15 16 17 18 18 20 22 23 24 27 28 27 28 27 30 31 32 30 35 37 40 45 47 45 47 44 38 35 33 31 30 28 28 27 25 24
18 15 11 8 5 5 10 12 13 14 15 15 15 16 17 19 20 21 23 22 24 27 33 30 21 29 27 23 30 45 47 50 45 38 33 30 29 30 29 29 29 29 29
10 7 5 4 3 4 6 8 9 10 11 11 12 13 14 14 16 18 19 20 22 23 25 27 29 26 25 24 24 31 35 42 39 37 37 34 28 26 27 30 30 31 31
5 4 3 3 3 3 4 5 7 7 7 7 7 8 10 11 12 14 16 17 18 19 20 21 21 25 25 23 21 23 36 40 40 37 39 38 32 29 29 31 33 33 31
8 7 7 8 8 8 6 6 7 8 8 8 8 8 8 7 8 10 12 11 10 12 15 16 19 22 26 23 22 19 18 37 37 39 43 42 39 36 36 32 34 30 28
14 14 15 15 14 12 11 11 11 11 9 8 7 7 6 6 6 7 8 8 7 7 7 8 13 20 22 27 27 28 28 30 35 36 38 36 41 37 31 34 31 29 28
19 19 20 20 19 17 17 16 15 13 12 10 9 8 6 5 4 4 3 4 4 4 5 7 9 9 12 17 20 23 24 28 29 31 32 29 29 27 30 30 31 29 28
22 21 21 23 24 23 22 22 19 15 13 11 10 9 7 7 6 4 3 3 4 5 4 5 6 9 11 13 16 17 21 21 20 20 22 24 21 25 29 30 30 29 32
22 21 21 22 21 19 18 16 14 11 10 10 10 9 8 7 6 6 5 3 2 2 3 5 6 6 8 10 13 17 20 20 20 20 22 21 24 29 32 32 30 32 32
22 22 21 21 20 18 17 16 14 13 13 13 13 11 10 9 9 8 7 6 4 3 2 3 4 6 8 11 13 16 16 18 21 21 21 23 28 30 33 33 35 36 34
Wind_Direction
245 242 208 208 205 194 192 216 235 208 207 202 200 199 199 200 199 198 197 194 192 191 188 189 187 188 190 187 186 185 185 177 175 166 166 173 183 189 189 187 184 189 188
233 217 212 205 204 197 191 198 233 221 210 203 203 203 202 203 202 200 199 199 197 195 194 195 192 192 192 190 194 193 187 191 183 176 156 166 191 203 201 198 194 198 202
226 212 209 203 209 208 211 202 200 223 211 204 204 204 202 201 200 202 204 202 199 199 198 199 199 198 201 199 200 200 202 200 194 184 175 167 198 178 205 208 206 208 207
223 214 212 209 206 212 218 211 201 193 215 206 207 209 210 204 204 207 206 203 202 203 202 202 202 204 206 203 204 206 206 208 209 204 204 194 179 182 180 209 214 214 210
224 216 213 216 216 212 214 222 213 212 210 206 211 211 210 211 209 209 205 204 207 207 205 206 206 208 211 210 210 210 211 212 214 215 214 215 210 202 174 189 206 215 218
226 213 215 218 218 220 221 219 210 213 219 212 215 213 214 212 215 211 207 205 209 210 209 209 210 212 213 216 217 215 219 220 220 220 225 226 223 222 213 189 192 195 213
222 225 211 214 210 218 227 222 219 226 218 221 219 217 218 218 218 217 212 209 209 211 212 213 212 214 217 217 220 220 222 223 224 225 228 228 227 225 220 208 201 194 208
307 281 226 216 220 225 226 230 224 221 220 216 223 218 221 223 222 219 216 218 215 214 214 220 219 219 220 220 222 223 223 225 225 226 227 230 228 227 226 222 216 189 206
48 36 259 219 219 226 225 227 219 218 214 217 219 223 229 227 225 223 220 222 222 223 222 220 222 225 224 222 224 226 225 224 226 226 227 228 230 228 227 226 224 214 197
27 17 19 242 217 221 226 231 228 223 221 223 225 229 229 226 227 227 224 225 222 226 228 227 228 229 226 224 225 227 226 227 227 227 227 228 230 228 227 227 222 219 210
347 337 330 312 227 219 221 229 233 230 226 231 229 233 232 229 228 227 227 229 228 232 234 233 234 233 232 228 228 230 229 230 230 228 227 228 229 229 227 224 224 222 218
343 341 334 292 252 227 217 221 224 229 230 235 231 239 233 238 236 233 237 236 233 233 237 236 237 236 237 235 232 231 234 231 232 230 229 227 226 227 227 225 224 221 217
338 327 337 319 268 237 233 220 224 236 236 230 237 235 232 236 239 241 238 241 241 240 241 242 235 238 240 237 236 234 236 235 234 235 232 230 228 225 225 225 221 217 217
319 324 318 316 278 250 240 236 225 232 235 235 231 240 240 231 236 241 245 244 245 246 247 244 247 241 237 240 237 239 237 236 234 234 235 233 234 231 227 225 223 219 213
313 316 307 303 283 254 241 227 229 231 237 236 236 238 247 243 241 237 245 247 247 249 250 251 243 246 244 240 239 238 238 237 235 233 232 231 234 235 233 227 223 218 214
297 302 298 294 271 269 236 234 230 230 227 237 241 242 239 244 242 240 244 241 242 248 252 250 242 245 250 241 240 240 239 236 233 232 230 229 228 230 230 227 229 229 224
292 293 292 278 273 254 226 222 229 229 226 224 234 238 239 239 242 243 245 246 246 246 244 242 254 253 248 248 247 237 237 238 233 230 230 230 226 223 224 224 222 221 223
290 292 289 272 259 227 216 222 222 226 221 217 222 231 232 235 233 232 238 245 247 249 244 238 246 244 269 291 271 256 240 237 225 224 224 231 230 227 222 223 223 222 221
266 278 266 254 225 224 207 215 227 228 216 209 212 217 222 226 237 235 236 241 245 247 249 241 234 234 236 251 261 257 249 239 230 223 220 214 229 227 227 227 229 227 223
189 178 146 132 125 160 196 208 211 207 197 200 196 208 216 225 224 228 236 238 242 244 244 243 235 235 236 233 241 242 240 232 220 215 210 209 212 217 220 227 228 228 228
118 118 122 118 107 99 112 142 142 148 161 175 183 186 192 196 203 214 223 228 231 235 236 239 236 221 224 228 235 230 227 226 219 217 212 212 207 208 216 225 231 231 231
111 111 112 104 99 99 98 101 108 106 114 129 143 154 156 152 151 157 167 171 180 195 212 218 226 229 232 225 228 233 234 229 225 218 217 217 220 219 216 225 228 228 229
104 103 101 99 95 95 94 92 87 87 89 96 102 105 108 114 115 121 131 146 169 214 231 223 231 227 221 224 223 230 226 227 228 226 223 218 214 213 227 226 226 223 221
98 99 99 93 89 89 85 82 81 81 83 83 82 81 81 85 98 118 141 162 194 213 215 223 219 221 217 211 207 212 220 220 219 217 210 208 212 225 227 226 223 221 221
97 97 93 90 84 86 86 81 75 71 77 87 93 93 88 83 82 85 93 108 151 198 212 215 214 218 216 213 218 220 221 216 214 205 203 200 215 219 221 223 222 223 223
94 91 88 87 81 79 79 78 78 77 83 85 83 82 87 90 88 84 79 70 75 101 154 200 217 215 206 207 213 217 221 222 219 213 214 218 224 223 223 224 222 224 225